User: anonymous   Login
Location: Vale
(35.4830°N, 81.3830°W)
Time: 12:45:48
(UTC-04:00)
Language:

Cosmos 2237 Rocket - Orbit

View from above orbital plane
View from above orbital plane
View from above satellite
View from above satellite

Ground track
Ground track

The orbit data is extracted from the following two-line orbital elements,

1 22566U 93016B   17201.99897550 -.00000316 +00000-0 -13875-3 0  9992
2 22566 071.0082 355.9508 0008043 079.1634 281.0394 14.14948921256048
Epoch (UTC): 20 July 2017 23:58:31
Eccentricity: 0.0008043
inclination: 71.0082°
perigee height: 836 km
apogee height: 848 km
right ascension of ascending node: 355.9508°
argument of perigee: 79.1634°
revolutions per day: 14.14948921
mean anomaly at epoch: 281.0394°
orbit number at epoch: 25604

The dashed part of the orbit path shows where the satellite is in the earth's shadow,  

DLR